DeLand, FL

5:33 PM EST on November 21, 2019 (GMT -0500)
De Land Municipal-Taylor

Weather History for KDED - September, 2019

Change the Weather History Date:

Tuesday, September 24, 2019

  Actual Average Record
Temperature  
Mean Temperature 76 °F -  
Max Temperature 87 °F 88 °F 89 °F (2016)
Min Temperature 64 °F 68 °F 64 °F (2019)
Cooling Degree Days 10    
Growing Degree Days 26 (Base 50)    
Moisture  
Dew Point 65 °F    
Average Humidity 71    
Maximum Humidity 100    
Minimum Humidity 40    
Precipitation  
Precipitation 0.00 in - - ()
Sea Level Pressure  
Sea Level Pressure 29.92 in    
Wind  
Wind Speed 2 mph (North)    
Max Wind Speed 10 mph    
Max Gust Speed -    
Visibility 10 miles    
Events      
Averages and records for this station are not official NWS values.
T = Trace of Precipitation, MM = Missing Value Source: NWS Daily Summary

Daily Weather History Graph

Daily Weather History Graph

Search for Another Location

Airport or City:

Astronomy

Sep. 24, 2019 Rise Set
Actual Time 7:14 AM EDT 7:19 PM EDT
Civil Twilight 6:50 AM EDT 7:43 PM EDT
Nautical Twilight 6:23 AM EDT 8:10 PM EDT
Astronomical Twilight 5:55 AM EDT 8:38 PM EDT
Moon 2:26 AM EDT (9/24) 4:37 PM EDT (9/24)
Length of Visible Light 12h 52m
Length of Day
12h 05m
Waning Crescent, 23% of the Moon is Illuminated
Sep 24
Waning Crescent
Sep 28
New
Oct 5
First Quarter
Oct 13
Full
Oct 21
Last Quarter

Hourly Weather History & Observations

Time (EDT) Temp. Heat Index Dew Point Humidity Pressure Visibility Wind Dir Wind Speed Gust Speed Precip Events Conditions
12:15 AM 68.0 °F - 66.2 °F 94% 29.99 in 10.0 mi Calm Calm - N/A   Clear
12:35 AM 68.0 °F - 64.4 °F 88% 29.98 in 10.0 mi Calm Calm - N/A   Clear
12:55 AM 68.0 °F - 64.4 °F 88% 29.97 in 10.0 mi Calm Calm - N/A   Clear
1:15 AM 68.0 °F - 64.4 °F 88% 29.97 in 10.0 mi Calm Calm - N/A   Clear
1:35 AM 68.0 °F - 66.2 °F 94% 29.96 in 10.0 mi Calm Calm - N/A   Clear
1:55 AM 66.2 °F - 64.4 °F 94% 29.95 in 10.0 mi Calm Calm - N/A   Clear
2:15 AM 66.2 °F - 64.4 °F 94% 29.95 in 10.0 mi Calm Calm - N/A   Clear
2:35 AM 66.2 °F - 64.4 °F 94% 29.94 in 10.0 mi Calm Calm - N/A   Clear
2:55 AM 66.2 °F - 64.4 °F 94% 29.93 in 10.0 mi Calm Calm - N/A   Clear
3:15 AM 66.2 °F - 62.6 °F 88% 29.92 in 10.0 mi Calm Calm - N/A   Clear
3:35 AM 66.2 °F - 64.4 °F 94% 29.92 in 10.0 mi Calm Calm - N/A   Clear
3:55 AM 66.2 °F - 64.4 °F 94% 29.91 in 10.0 mi Calm Calm - N/A   Clear
4:15 AM 66.2 °F - 62.6 °F 88% 29.91 in 10.0 mi Calm Calm - N/A   Clear
4:35 AM 64.4 °F - 62.6 °F 94% 29.91 in 10.0 mi NW 3.5 mph - N/A   Clear
4:55 AM 64.4 °F - 64.4 °F 100% 29.91 in 10.0 mi NW 3.5 mph - N/A   Clear
5:15 AM 66.2 °F - 64.4 °F 94% 29.91 in 10.0 mi Calm Calm - N/A   Clear
5:35 AM 64.4 °F - 62.6 °F 94% 29.92 in 10.0 mi Calm Calm - N/A   Clear
5:55 AM 64.4 °F - 62.6 °F 94% 29.92 in 10.0 mi Calm Calm - N/A   Clear
6:15 AM 64.4 °F - 62.6 °F 94% 29.92 in 10.0 mi Calm Calm - N/A   Clear
6:35 AM 64.4 °F - 62.6 °F 94% 29.93 in 10.0 mi Calm Calm - N/A   Clear
6:55 AM 64.4 °F - 62.6 °F 94% 29.94 in 10.0 mi Calm Calm - N/A   Clear
7:15 AM 64.4 °F - 62.6 °F 94% 29.94 in 10.0 mi Calm Calm - N/A   Clear
7:35 AM 64.4 °F - 62.6 °F 94% 29.95 in 10.0 mi Calm Calm - N/A   Clear
7:55 AM 66.2 °F - 64.4 °F 94% 29.96 in 10.0 mi Calm Calm - N/A   Clear
8:15 AM 68.0 °F - 66.2 °F 94% 29.96 in 10.0 mi NW 3.5 mph - N/A   Clear
8:35 AM 71.6 °F - 69.8 °F 94% 29.97 in 10.0 mi NW 3.5 mph - N/A   Clear
8:55 AM 73.4 °F - 69.8 °F 88% 29.97 in 10.0 mi NW 5.8 mph - N/A   Clear
9:15 AM 75.2 °F - 69.8 °F 83% 29.97 in 10.0 mi WNW 6.9 mph - N/A   Clear
9:35 AM 77.0 °F - 69.8 °F 78% 29.97 in 10.0 mi NW 8.1 mph - N/A   Clear
9:55 AM 78.8 °F - 68.0 °F 69% 29.97 in 10.0 mi NW 6.9 mph - N/A   Clear
10:15 AM 78.8 °F - 68.0 °F 69% 29.98 in 10.0 mi NW 6.9 mph - N/A   Clear
10:35 AM 78.8 °F - 66.2 °F 65% 29.98 in 10.0 mi NW 6.9 mph - N/A   Clear
10:55 AM 80.6 °F 82.7 °F 66.2 °F 61% 29.97 in 10.0 mi WNW 5.8 mph - N/A   Clear
11:15 AM 82.4 °F 83.9 °F 64.4 °F 54% 29.97 in 10.0 mi West 4.6 mph - N/A   Clear
11:35 AM 82.4 °F 84.6 °F 66.2 °F 58% 29.97 in 10.0 mi North 6.9 mph - N/A   Clear
11:55 AM 82.4 °F 84.6 °F 66.2 °F 58% 29.96 in 10.0 mi NNW 10.4 mph - N/A   Clear
12:15 PM 84.2 °F 86.6 °F 66.2 °F 55% 29.95 in 10.0 mi WNW 6.9 mph - N/A   Clear
12:35 PM 84.2 °F 85.6 °F 64.4 °F 51% 29.94 in 10.0 mi WNW 5.8 mph - N/A   Clear
12:55 PM 84.2 °F 85.6 °F 64.4 °F 51% 29.93 in 10.0 mi NNW 5.8 mph - N/A   Clear
1:15 PM 86.0 °F 86.6 °F 62.6 °F 45% 29.93 in 10.0 mi NW 6.9 mph - N/A   Clear
1:35 PM 86.0 °F 86.6 °F 62.6 °F 45% 29.92 in 10.0 mi NNE 3.5 mph - N/A   Clear
1:55 PM 87.8 °F 89.4 °F 64.4 °F 46% 29.90 in 10.0 mi NNE 8.1 mph - N/A   Scattered Clouds
2:15 PM 87.8 °F 89.4 °F 64.4 °F 46% 29.90 in 10.0 mi NNW 3.5 mph - N/A   Scattered Clouds
2:35 PM 87.8 °F 89.4 °F 64.4 °F 46% 29.89 in 10.0 mi WSW 4.6 mph - N/A   Scattered Clouds
2:55 PM 86.0 °F 86.6 °F 62.6 °F 45% 29.88 in 10.0 mi North 4.6 mph - N/A   Scattered Clouds
3:15 PM 87.8 °F 88.5 °F 62.6 °F 43% 29.87 in 10.0 mi North 6.9 mph - N/A   Clear
3:35 PM 87.8 °F 88.5 °F 62.6 °F 43% 29.86 in 10.0 mi East 4.6 mph - N/A   Clear
3:55 PM 87.8 °F 87.6 °F 60.8 °F 40% 29.85 in 10.0 mi NE 4.6 mph - N/A   Clear
4:15 PM 87.8 °F 87.6 °F 60.8 °F 40% 29.85 in 10.0 mi North 4.6 mph - N/A   Clear
4:35 PM 87.8 °F 88.5 °F 62.6 °F 43% 29.85 in 10.0 mi NNW 5.8 mph - N/A   Clear
4:55 PM 87.8 °F 88.5 °F 62.6 °F 43% 29.85 in 10.0 mi East 6.9 mph - N/A   Clear
5:15 PM 87.8 °F 87.6 °F 60.8 °F 40% 29.85 in 10.0 mi Calm Calm - N/A   Clear
5:35 PM 87.8 °F 89.4 °F 64.4 °F 46% 29.85 in 10.0 mi ENE 8.1 mph - N/A   Clear
5:55 PM 86.0 °F 87.3 °F 64.4 °F 48% 29.85 in 10.0 mi NE 6.9 mph - N/A   Clear
6:15 PM 86.0 °F 86.6 °F 62.6 °F 45% 29.86 in 10.0 mi East 8.1 mph - N/A   Clear
6:35 PM 84.2 °F 85.0 °F 62.6 °F 48% 29.86 in 10.0 mi East 8.1 mph - N/A   Clear
6:55 PM 82.4 °F 82.9 °F 60.8 °F 48% 29.86 in 10.0 mi East 5.8 mph - N/A   Clear
7:15 PM 80.6 °F 81.8 °F 62.6 °F 54% 29.86 in 10.0 mi East 5.8 mph - N/A   Clear
7:35 PM 78.8 °F - 62.6 °F 57% 29.87 in 10.0 mi SE 5.8 mph - N/A   Clear
7:55 PM 77.0 °F - 64.4 °F 65% 29.87 in 10.0 mi ESE 4.6 mph - N/A   Clear
8:15 PM 77.0 °F - 64.4 °F 65% 29.88 in 10.0 mi East 3.5 mph - N/A   Clear
8:35 PM 75.2 °F - 66.2 °F 73% 29.88 in 10.0 mi SSE 4.6 mph - N/A   Clear
8:55 PM 77.0 °F - 66.2 °F 69% 29.89 in 10.0 mi SE 4.6 mph - N/A   Clear
9:15 PM 75.2 °F - 66.2 °F 73% 29.89 in 10.0 mi SSE 4.6 mph - N/A   Clear
9:35 PM 75.2 °F - 66.2 °F 73% 29.89 in 10.0 mi SSE 5.8 mph - N/A   Clear
9:55 PM 75.2 °F - 66.2 °F 73% 29.90 in 10.0 mi South 4.6 mph - N/A   Clear
10:15 PM 75.2 °F - 66.2 °F 73% 29.90 in 10.0 mi South 4.6 mph - N/A   Clear
10:35 PM 73.4 °F - 66.2 °F 78% 29.91 in 10.0 mi South 4.6 mph - N/A   Clear
10:55 PM 73.4 °F - 66.2 °F 78% 29.91 in 10.0 mi South 3.5 mph - N/A   Clear
11:15 PM 73.4 °F - 66.2 °F 78% 29.91 in 10.0 mi South 3.5 mph - N/A   Clear
11:35 PM 73.4 °F - 66.2 °F 78% 29.91 in 10.0 mi Calm Calm - N/A   Clear
11:55 PM 71.6 °F - 66.2 °F 83% 29.91 in 10.0 mi Calm Calm - N/A   Clear